Find SpaceMobile-004

NORAD ID: 61049 Int'l Des: 2024-163 Owner: ASTS Country: US Constellation: bluewalker operational
LEOCIRCULAR

实时位置

正在加载3D地球...

关于 SpaceMobile-004

正在加载描述...

即将过境

Passes for default location (London). Set your location on the main map for personalized predictions.

高度历史

Loading altitude history...

两行轨道根数

1 61049U 24163E 26105.60597682 .00010865 00000-0 49846-3 0 9997
2 61049 52.9717 236.7450 0006242 314.9733 45.0755 15.20930654 88247
Epoch: Apr 15, 2026 • Age: 27 hours

当前状态

高度 500.5 km
速度 7.62 km/s
星下点 6.99°N, 131.13°E
发射日期 Sep 12, 2024
运行时间 1.5 years
类型 other

技术详情

分类 Payload
质量 1500.00 kg
干质量 1500.00 kg
总质量 1500.00 kg
长度 1.00 m
直径 1.00 m
跨度 9.00 m
形状 Box + plate
制造商 ASTS
平台类型 BW3
阶段状态 In Orbit
所有者/国家 ASTS/US

Most Searched